SATORO-T2 (60477 NORAD) Tracking and Keplerian Element Data

This shows tracking and keplerian element data for the satellite.

Feedback or suggestion? Click here.




ElementValue
Catalog60477
NameSATORO-T2
Epoch Orbit864
Epoch Day286.75402153
Epoch Year2024
RAAN1.4358
Inclination97.4356
Eccentricity0.0002295
Argument of Perigee217.7718
Mean Anonmoly142.3356
Mean Motion15.20683356
Decay Rate0.00028974
L11 60477U 24149K 24286.75402153 .00028974 00000+0 13177-2 0 9993
L22 60477 97.4356 1.4358 0002295 217.7718 142.3356 15.20683356 8643



Live tracking and technical data element details for SATORO-T2 (NORAD 60477). SATORO-T2 can be tracked NOW for your location showing map with azimuth and elevation plus other details from your city location.







IsCatalogInMostPopularTable: catalog: 60477, numindb: 5
Update: records affected: 1



GetName: 60477 SATORO-T2

Hit Count: updated at: Tue, 03 Dec 2024 02:09:55 GMT